Torna al catalogo

STARLINK-36571

AttivoComunicazioniSSO
NORAD 67579·PAYLOAD·🇺🇸 United States

Lanciato Jan 25, 2026 da Vandenberg Space Force Base

Loading…

Prossimi Passaggi (prossime 24 ore)

TLE

AggiornatoSource: CelesTrak SupGP

Epoca: Sep 15, 2026, 04:08 UTC

1 67579C 26016U   26258.17270833 -.00036831  00000+0 -11433-2 0  2587
2 67579  97.2852 316.8900 0000914  89.2260 233.7111 15.33459156    18

Traccia STARLINK-36571 in tempo reale con AllMySat

Download on the App Store